Flag for Germany Weather past 2 weeks in Osterholz-Scharmbeck, Lower Saxony, Germany

Now
38 °F

Overcast.


Feels Like: 32 °F
Forecast: 37 / 45 °F
Wind: 8 mph from Southwest

Location: Bremen

Current Time: Mar 4, 2015 at 9:56:23 AM

Latest Report: Mar 4, 2015 at 9:00 AM


Visibility: 11 mi

Pressure: 30.06 "Hg

Humidity: 85%

Dew point: 33 °F

Location of Osterholz-ScharmbeckLocation

Historic Weather in Osterholz-Scharmbeck — Graph

°F

Osterholz-Scharmbeck temperature yesterday

Maximum temperature yesterday: 43 °F (at 1:00 PM)
Minimum temperature yesterday: 33 °F (at 1:00 AM)
Average temperature yesterday: 38 °F

Past Weeks' High & Low Weather Summary

 TemperatureHumidityPressure
High49 °F (Mar 1, 12:00 PM)100% (Feb 17, 8:00 AM)30.73 "Hg (Feb 17, 8:00 AM)
Low27 °F (Feb 17, 8:00 AM)48% (Mar 2, 4:00 PM)29.26 "Hg (Feb 21, 7:00 AM)
Average39 °F85%29.86 "Hg
* Reported Feb 17 8:00 AM — Mar 4 8:00 AM, Osterholz-Scharmbeck, Weather by CustomWeather, © 2015

Note: Actual official high and low records may vary slightly from our data, if they occured in-between our weather recording intervals... More about our weather records

Advertising

Osterholz-Scharmbeck weather history for previous 24 hours

 ConditionsComfort  
Time TempWeatherWind HumidityBarometerVisibility
8:00 AM
Wed, Mar 4
36 °FLight rain. Overcast.8 mph85%30.05 "Hg11 mi
7:00 AM34 °FOvercast.7 mph87%30.03 "Hg19 mi
6:00 AM34 °FPassing clouds.6 mph87%30.03 "Hg19 mi
5:00 AM33 °FClear.5 mph87%30.01 "Hg22 mi
3:00 AM34 °FPassing clouds.6 mph92%30.00 "Hg19 mi
2:00 AM34 °FPassing clouds.5 mph91%29.99 "Hg19 mi
1:00 AM35 °FPassing clouds.6 mph92%29.98 "Hg22 mi
12:00 AM34 °FPassing clouds.6 mph92%29.98 "Hg22 mi
11:00 PM
Tue, Mar 3
35 °FPassing clouds.6 mph92%29.96 "Hg25 mi
9:00 PM37 °FPassing clouds.6 mph88%29.93 "Hg25 mi
8:00 PM39 °FPassing clouds.7 mph87%29.90 "Hg25 mi
7:00 PM40 °FOvercast.9 mph85%29.88 "Hg25 mi
6:00 PM40 °FOvercast.8 mph89%29.86 "Hg16 mi
5:00 PM39 °FLight rain. Low clouds.7 mph94%29.86 "Hg5 mi
3:00 PM40 °FLight rain. Overcast.8 mph86%29.89 "Hg7 mi
2:00 PM40 °FOvercast.10 mph88%29.93 "Hg4 mi
1:00 PM43 °FOvercast.7 mph71%29.95 "Hg16 mi
12:00 PM43 °FPartly sunny.12 mph73%29.96 "Hg16 mi
11:00 AM42 °FScattered clouds.9 mph77%29.96 "Hg16 mi
10:00 AM39 °FOvercast.8 mph84%29.96 "Hg16 mi
9:00 AM36 °FScattered clouds.7 mph86%29.95 "Hg16 mi
Weather by CustomWeather, © 2015

See weather overviewHow to use our weather pages